Location: Friedrichshafen
(47.6598°N, 9.4819°E)
Time: 09:38:51
(UTC+01:00)

ISS - Visible Passes

Search period start: 17 February 2019 00:00
Search period end: 27 February 2019 00:00
Orbit: 403 x 411 km, 51.6° (Epoch: 17 February)

Date Brightness Start Highest point End Pass type
(mag) Time Alt. Az. Time Alt. Az. Time Alt. Az.
21 Feb -0.3 06:42:05 10° SE 06:42:47 11° SE 06:43:29 10° ESE visible
23 Feb -1.3 06:33:24 10° SSW 06:36:01 22° SE 06:38:37 10° E visible
24 Feb -0.9 05:43:02 10° SSE 05:44:43 13° SE 05:46:25 10° ESE visible
25 Feb -2.8 06:26:11 10° SW 06:29:19 44° SSE 06:32:28 10° ENE visible
26 Feb -2.0 05:35:45 14° SSW 05:37:55 27° SE 05:40:46 10° E visible
